Temp
10 12 12 12 12 13 13 12 12 11 12 14 13 14 14 14 13 11 10 9 9 10 8 6 5 2 2 1 0 0 -0 -1 -1 -2 -2 -2 -3 -3 -3 -3 -4 -4 -5 -5 -6 -6 -6 -7 -7 -7 -6 -6 -6 -6 -5 -5 -5 -5 -5 -4 -4 -3 -3 -3 -3 -3 -3 -3 -2 -2 -2 -2 -3 -2 -1 -1 -1 -1 -0 0 0 1 1 1 2 2
10 12 12 11 10 10 11 11 11 11 12 12 13 13 13 14 13 10 9 9 9 10 8 5 4 2 1 1 -0 0 -0 -1 -1 -2 -2 -2 -3 -3 -3 -4 -4 -4 -4 -5 -5 -6 -6 -7 -7 -7 -7 -6 -6 -6 -6 -6 -6 -5 -5 -5 -4 -4 -4 -4 -4 -4 -4 -4 -3 -3 -3 -3 -3 -3 -3 -2 -2 -1 -1 -0 -0 0 0 1 1 1
10 12 10 8 7 8 9 10 11 12 12 12 13 13 13 13 12 9 9 8 9 11 8 5 5 3 1 0 -1 -1 -1 -2 -2 -2 -2 -2 -3 -3 -4 -4 -4 -4 -4 -4 -5 -6 -6 -7 -7 -7 -7 -7 -7 -6 -6 -6 -6 -5 -5 -5 -5 -4 -4 -4 -4 -4 -4 -4 -4 -4 -4 -3 -3 -3 -3 -3 -2 -2 -1 -1 -1 -0 -0 -0 0 0
11 11 8 6 7 8 9 10 11 12 12 12 13 13 13 12 12 12 10 8 8 10 8 7 6 3 0 -0 -1 -1 -2 -2 -3 -3 -3 -3 -3 -3 -4 -4 -4 -4 -4 -5 -5 -5 -6 -6 -6 -7 -7 -7 -7 -7 -7 -7 -6 -6 -6 -6 -5 -5 -4 -4 -4 -4 -4 -4 -4 -4 -4 -3 -3 -3 -3 -3 -2 -2 -1 -2 -1 -1 -1 -1 -1 -0
10 8 6 6 6 9 10 10 11 12 12 12 12 13 13 11 11 11 10 8 8 8 8 7 8 7 3 1 -0 -2 -2 -2 -3 -3 -3 -3 -4 -4 -4 -4 -5 -5 -5 -5 -5 -5 -6 -6 -6 -7 -7 -7 -7 -7 -7 -7 -7 -7 -7 -6 -6 -5 -5 -4 -4 -4 -4 -4 -4 -4 -4 -4 -4 -3 -4 -3 -3 -3 -3 -3 -2 -2 -2 -1 -1 -1
9 5 5 7 7 8 10 10 10 11 12 11 11 12 12 11 10 9 9 10 10 10 9 8 11 11 4 1 1 -1 -2 -2 -2 -2 -3 -3 -3 -4 -4 -4 -5 -5 -5 -5 -5 -6 -6 -6 -6 -7 -7 -7 -7 -8 -8 -8 -8 -7 -7 -6 -6 -5 -5 -4 -4 -4 -4 -4 -4 -5 -5 -4 -4 -4 -5 -5 -5 -5 -5 -4 -3 -3 -2 -2 -2 -2
8 5 5 7 8 8 10 10 9 9 12 12 10 10 11 11 10 10 10 11 12 11 9 8 11 11 6 2 2 -1 -2 -1 -2 -2 -2 -3 -3 -3 -4 -4 -5 -5 -5 -5 -6 -6 -6 -6 -6 -7 -7 -7 -7 -8 -8 -8 -8 -7 -7 -6 -6 -6 -5 -4 -4 -4 -4 -4 -5 -5 -6 -6 -6 -6 -6 -6 -6 -6 -6 -4 -4 -3 -3 -3 -3 -3
6 6 6 7 8 9 10 10 8 7 11 11 8 8 10 11 10 10 11 11 12 11 8 8 9 11 9 5 2 -0 -1 -1 -1 -1 -2 -2 -3 -3 -3 -4 -5 -5 -5 -5 -5 -6 -6 -6 -6 -7 -7 -8 -8 -8 -8 -8 -8 -8 -7 -7 -6 -6 -6 -5 -5 -4 -4 -5 -5 -6 -6 -6 -7 -7 -7 -7 -6 -6 -6 -5 -4 -4 -4 -3 -3 -3
4 6 6 7 9 10 9 8 5 6 10 9 6 7 9 10 10 10 11 11 11 10 9 9 8 10 11 5 -0 0 -0 -1 -1 -1 -1 -2 -2 -3 -4 -4 -5 -5 -5 -5 -5 -6 -6 -6 -7 -7 -7 -8 -8 -8 -8 -8 -8 -8 -8 -7 -7 -6 -6 -6 -5 -5 -5 -5 -6 -6 -6 -7 -7 -7 -7 -7 -7 -6 -6 -6 -5 -5 -5 -4 -4 -4
3 4 4 5 8 8 7 5 4 6 8 7 5 7 8 8 9 9 10 11 10 9 10 9 8 10 11 5 -0 0 1 1 1 0 -0 -1 -2 -3 -4 -4 -5 -5 -5 -5 -6 -6 -6 -7 -7 -7 -8 -8 -8 -9 -9 -8 -8 -8 -8 -8 -7 -7 -6 -6 -6 -6 -5 -5 -6 -6 -7 -7 -7 -7 -7 -7 -7 -7 -6 -6 -6 -6 -6 -5 -5 -5
3 3 3 4 5 5 4 4 4 4 6 6 7 9 9 8 9 8 9 10 9 9 8 7 8 9 10 7 2 2 2 3 3 1 -0 -1 -2 -3 -4 -4 -5 -5 -5 -5 -6 -6 -7 -7 -7 -7 -7 -8 -8 -9 -9 -9 -9 -8 -8 -8 -7 -7 -7 -7 -6 -6 -6 -6 -6 -7 -7 -7 -7 -8 -8 -8 -8 -7 -7 -7 -7 -7 -7 -6 -6 -6
4 4 4 3 2 3 4 5 4 4 5 6 8 10 9 9 9 9 9 9 8 10 7 4 5 7 9 9 5 3 2 4 4 2 0 -1 -2 -3 -3 -4 -4 -5 -5 -5 -5 -6 -6 -6 -7 -7 -7 -8 -8 -8 -9 -9 -9 -9 -9 -8 -8 -7 -7 -7 -7 -7 -7 -7 -7 -7 -7 -8 -8 -8 -9 -9 -9 -9 -9 -9 -8 -8 -8 -7 -7 -7
6 5 4 3 3 3 4 7 6 6 6 7 8 10 9 9 9 8 9 8 8 9 6 4 5 6 9 8 5 4 2 2 3 2 1 -1 -2 -2 -3 -4 -4 -5 -5 -5 -4 -5 -5 -5 -6 -7 -7 -7 -8 -8 -9 -9 -9 -9 -9 -9 -8 -8 -7 -7 -7 -7 -7 -7 -7 -7 -8 -8 -9 -9 -9 -9 -9 -9 -9 -9 -9 -9 -9 -9 -8 -8
6 5 3 4 4 2 4 7 8 7 8 8 8 10 10 9 8 7 8 7 8 8 4 4 6 7 9 7 3 3 1 -0 0 1 1 0 -1 -2 -3 -4 -4 -4 -4 -4 -4 -5 -5 -5 -6 -7 -7 -7 -8 -9 -9 -9 -9 -9 -9 -9 -9 -8 -7 -7 -7 -7 -8 -8 -8 -8 -8 -8 -9 -9 -10 -10 -10 -10 -10 -10 -10 -10 -10 -10 -9 -9
7 7 4 4 4 2 3 4 5 6 8 7 7 8 9 9 9 9 9 8 8 7 5 5 6 9 10 5 0 -0 -1 -2 -1 -0 0 -0 -2 -2 -3 -3 -4 -4 -4 -4 -4 -5 -5 -6 -6 -7 -7 -8 -8 -9 -9 -9 -10 -9 -9 -9 -9 -8 -8 -8 -8 -8 -8 -8 -8 -8 -8 -8 -9 -9 -10 -10 -10 -10 -10 -10 -10 -10 -10 -10 -10 -10
6 6 3 1 1 1 2 2 1 4 8 7 5 7 8 9 9 7 5 6 6 6 6 6 7 9 6 -1 -3 -2 -2 -2 -1 -2 -1 -2 -2 -3 -3 -4 -4 -4 -4 -4 -4 -5 -6 -6 -7 -7 -7 -8 -8 -9 -9 -10 -10 -10 -10 -10 -9 -9 -8 -8 -8 -8 -8 -9 -9 -9 -9 -9 -9 -9 -10 -10 -10 -10 -10 -10 -10 -10 -11 -11 -10 -10
5 5 1 0 1 0 1 1 0 2 6 7 6 7 6 5 7 6 4 3 4 6 8 7 8 8 4 -0 -2 -2 -2 -2 -2 -2 -2 -2 -3 -3 -3 -3 -3 -4 -4 -4 -4 -5 -6 -6 -7 -7 -8 -8 -9 -9 -10 -10 -10 -10 -10 -10 -10 -9 -9 -8 -8 -9 -9 -9 -9 -9 -9 -9 -9 -9 -10 -10 -10 -10 -10 -11 -11 -11 -11 -11 -11 -10
5 5 1 0 2 1 -2 -0 1 0 3 6 7 6 5 4 6 7 7 5 4 7 8 7 7 8 9 5 -1 -3 -1 -1 -2 -2 -2 -2 -3 -3 -3 -3 -3 -3 -4 -4 -4 -5 -6 -6 -7 -7 -8 -9 -9 -9 -10 -10 -10 -10 -10 -9 -9 -9 -9 -9 -9 -9 -9 -9 -9 -9 -9 -9 -10 -10 -10 -10 -10 -10 -10 -11 -11 -11 -11 -11 -11 -11
3 6 3 -1 1 2 -1 0 3 2 1 3 4 4 4 6 7 7 7 6 6 6 7 7 6 6 10 7 1 -1 -0 -1 -2 -2 -2 -3 -3 -3 -2 -2 -3 -3 -4 -4 -5 -5 -5 -6 -7 -7 -8 -9 -10 -10 -10 -10 -10 -9 -9 -9 -9 -9 -9 -9 -9 -9 -9 -9 -9 -9 -10 -10 -10 -10 -10 -10 -10 -11 -11 -11 -11 -11 -12 -12 -12 -12
2 6 5 -0 -0 2 1 3 5 4 2 2 3 3 3 5 6 6 6 6 7 7 6 6 5 7 9 7 4 3 2 -0 -1 -2 -2 -2 -2 -2 -2 -2 -3 -4 -4 -4 -4 -5 -5 -6 -7 -7 -8 -9 -10 -10 -10 -10 -10 -9 -9 -9 -10 -10 -9 -9 -9 -9 -9 -10 -10 -10 -10 -10 -10 -10 -11 -11 -11 -11 -11 -11 -11 -12 -12 -12 -13 -13
2 4 5 1 -0 1 3 2 2 3 3 3 4 4 3 4 4 5 5 5 5 6 7 5 6 9 7 2 2 4 2 1 0 -1 -1 -2 -2 -1 -2 -2 -3 -3 -4 -4 -4 -4 -5 -6 -7 -8 -9 -9 -10 -10 -10 -10 -10 -10 -10 -10 -10 -10 -10 -10 -10 -10 -10 -10 -10 -10 -11 -11 -11 -11 -11 -11 -12 -12 -12 -12 -12 -12 -13 -13 -13 -13
2 4 4 2 1 3 1 -3 -5 -3 -2 0 3 3 4 4 4 5 5 2 1 4 6 4 6 9 3 -3 -1 1 1 1 1 -1 -1 -1 -1 -1 -2 -2 -2 -3 -3 -4 -4 -4 -5 -6 -7 -8 -9 -10 -10 -10 -10 -10 -10 -10 -10 -10 -10 -10 -10 -10 -10 -10 -10 -10 -11 -11 -11 -11 -11 -11 -12 -12 -12 -13 -13 -13 -13 -13 -14 -14 -14 -14
-1 2 3 2 1 0 -2 -6 -6 -6 -6 -3 -2 -1 1 2 4 7 6 3 1 1 2 2 5 6 -1 -5 -2 -2 -1 0 0 -0 -1 -1 -1 -1 -2 -2 -2 -3 -3 -4 -4 -4 -5 -6 -7 -8 -9 -10 -10 -10 -11 -10 -10 -10 -10 -10 -10 -10 -10 -10 -10 -11 -11 -11 -11 -11 -11 -12 -12 -12 -12 -13 -13 -13 -13 -14 -14 -14 -14 -15 -15 -15
-1 2 3 2 -0 -2 -4 -5 -6 -7 -6 -3 -2 -3 -2 -1 1 3 3 3 2 2 2 2 4 5 -1 -4 -3 -3 -3 -1 -1 -0 -1 -2 -1 -2 -2 -2 -2 -3 -3 -4 -4 -5 -6 -6 -7 -8 -8 -9 -10 -10 -11 -11 -10 -10 -10 -10 -10 -10 -11 -11 -11 -11 -11 -11 -12 -12 -12 -12 -12 -12 -13 -13 -14 -14 -14 -14 -14 -15 -15 -15 -16 -16
1 3 3 3 2 1 -0 -1 -2 -4 -5 -3 -2 -5 -5 -4 -2 -1 -1 1 3 3 4 4 5 5 -0 -4 -3 -3 -3 -2 -2 -1 -1 -2 -1 -1 -2 -2 -3 -3 -3 -4 -4 -5 -6 -6 -7 -7 -8 -9 -9 -10 -11 -10 -10 -10 -10 -10 -10 -11 -11 -11 -11 -11 -11 -12 -12 -12 -12 -12 -12 -13 -13 -13 -14 -14 -14 -14 -15 -15 -16 -16 -16 -16
-1 1 2 4 4 4 4 3 1 -1 -2 -3 -4 -6 -6 -5 -3 0 2 2 3 2 2 5 6 4 -1 -4 -2 -2 -2 -2 -2 -2 -2 -2 -1 -2 -2 -2 -3 -3 -4 -4 -5 -5 -5 -6 -7 -7 -8 -9 -9 -10 -10 -11 -10 -10 -10 -11 -10 -11 -11 -11 -12 -12 -12 -12 -12 -13 -13 -13 -13 -13 -13 -14 -14 -14 -15 -15 -15 -16 -16 -16 -16 -17
-3 -2 -2 1 4 3 3 0 -5 -5 -2 -1 -4 -5 -5 -5 -4 -1 2 3 3 1 1 4 5 3 0 -2 -2 -3 -3 -2 -2 -2 -2 -2 -2 -2 -2 -3 -3 -4 -4 -4 -5 -5 -5 -6 -6 -7 -8 -8 -9 -10 -10 -11 -11 -10 -10 -11 -11 -11 -11 -12 -12 -12 -12 -13 -13 -13 -13 -13 -13 -13 -14 -14 -15 -15 -15 -16 -16 -16 -16 -17 -17 -17
-2 -1 -5 -4 -2 -5 -6 -7 -11 -9 -4 -3 -3 -4 -5 -5 -5 -2 1 2 2 2 3 4 4 3 3 1 -2 -3 -3 -3 -2 -2 -3 -3 -3 -3 -3 -3 -4 -4 -4 -5 -5 -5 -6 -6 -6 -7 -8 -8 -9 -10 -10 -11 -11 -11 -11 -11 -11 -11 -12 -12 -12 -12 -13 -13 -13 -13 -13 -13 -14 -14 -15 -15 -15 -16 -16 -17 -17 -17 -17 -17 -17 -18
-1 -0 -7 -7 -5 -10 -12 -11 -12 -10 -7 -7 -6 -4 -5 -5 -5 -3 -0 0 1 4 4 1 0 2 4 3 0 -1 -2 -2 -2 -2 -2 -3 -3 -4 -4 -4 -5 -5 -5 -5 -6 -6 -5 -5 -6 -6 -7 -8 -9 -10 -11 -11 -11 -11 -11 -11 -11 -12 -12 -12 -12 -13 -13 -13 -13 -14 -14 -14 -14 -14 -15 -16 -16 -17 -17 -17 -17 -17 -18 -18 -18 -18
-2 -1 -8 -9 -5 -8 -12 -12 -12 -11 -8 -8 -8 -6 -6 -5 -5 -4 -1 -2 -1 1 1 -3 -4 -2 0 1 -0 -2 -2 -1 -2 -3 -3 -3 -4 -4 -5 -5 -4 -4 -5 -5 -5 -5 -5 -5 -5 -6 -7 -8 -9 -10 -10 -11 -11 -11 -11 -11 -12 -12 -12 -12 -12 -13 -13 -14 -14 -14 -14 -14 -14 -15 -16 -16 -17 -17 -17 -18 -18 -18 -18 -19 -19 -19
-3 -3 -8 -8 -3 -5 -10 -11 -11 -10 -9 -8 -7 -7 -7 -6 -6 -5 -4 -4 -4 -3 -2 -3 -4 -3 -2 -0 -1 -2 -3 -3 -3 -3 -4 -3 -4 -4 -5 -4 -4 -4 -4 -4 -5 -4 -4 -5 -6 -6 -7 -8 -9 -9 -10 -11 -11 -11 -11 -12 -12 -12 -12 -12 -13 -13 -13 -14 -14 -14 -14 -14 -15 -15 -16 -17 -17 -17 -18 -18 -18 -19 -19 -19 -19 -19
-4 -5 -9 -7 -1 -3 -9 -11 -9 -10 -10 -8 -7 -7 -7 -7 -6 -6 -5 -5 -4 -2 -2 -2 -2 -1 0 -0 -1 -2 -3 -3 -3 -3 -3 -3 -4 -4 -4 -4 -4 -4 -4 -4 -4 -4 -4 -5 -6 -6 -7 -8 -8 -9 -10 -10 -11 -11 -11 -12 -12 -12 -12 -12 -13 -13 -14 -14 -14 -14 -14 -15 -15 -16 -16 -17 -17 -18 -18 -18 -19 -19 -20 -20 -20 -20
-6 -5 -5 -5 -1 -2 -9 -12 -10 -8 -5 -2 -3 -4 -5 -5 -6 -5 -5 -5 -4 -2 -1 -1 -0 1 0 -1 -1 -2 -4 -4 -3 -3 -3 -3 -4 -4 -4 -4 -3 -3 -3 -3 -4 -4 -4 -5 -6 -7 -7 -8 -8 -9 -9 -10 -10 -11 -11 -11 -12 -12 -12 -13 -13 -13 -14 -14 -14 -14 -15 -15 -15 -16 -17 -17 -18 -18 -18 -18 -19 -20 -20 -20 -20 -20
-8 -4 -4 -5 -1 -1 -8 -11 -8 -4 1 1 -4 -6 -5 -4 -4 -4 -4 -4 -4 -3 -1 0 0 -1 -2 -2 -1 -1 -3 -4 -3 -3 -2 -2 -3 -4 -4 -4 -4 -3 -4 -4 -3 -4 -4 -5 -6 -7 -7 -8 -8 -8 -9 -9 -10 -10 -11 -11 -12 -12 -13 -13 -13 -13 -14 -14 -14 -15 -15 -15 -16 -16 -17 -18 -18 -18 -19 -19 -19 -20 -20 -20 -20 -21
-7 -5 -6 -7 -3 -3 -7 -7 -2 1 2 -2 -8 -9 -7 -5 -4 -4 -3 -2 -3 -3 -2 -1 -1 -1 -2 -1 -1 -2 -3 -4 -4 -4 -3 -3 -3 -3 -4 -4 -4 -4 -4 -4 -4 -4 -5 -6 -6 -7 -7 -7 -8 -8 -9 -10 -10 -11 -11 -12 -12 -12 -13 -13 -14 -14 -14 -14 -15 -15 -15 -16 -16 -17 -17 -18 -18 -18 -19 -19 -20 -20 -21 -21 -21 -21
-6 -5 -6 -7 -5 -4 -4 -3 1 2 -0 -5 -8 -9 -8 -7 -5 -4 -3 -2 -2 -3 -3 -3 -1 -1 -2 -2 -3 -4 -5 -5 -5 -5 -5 -5 -4 -4 -4 -4 -4 -5 -5 -5 -5 -5 -6 -6 -6 -7 -7 -7 -8 -9 -9 -10 -10 -11 -12 -12 -12 -13 -13 -14 -14 -14 -14 -14 -15 -15 -16 -16 -17 -17 -18 -18 -19 -19 -19 -20 -20 -21 -21 -21 -21 -21
-6 -5 -4 -4 -5 -5 -3 -2 -0 1 1 -1 -4 -6 -7 -5 -4 -3 -1 1 0 -1 -3 -3 -2 -1 -2 -3 -5 -6 -6 -5 -4 -3 -4 -5 -6 -5 -4 -4 -4 -5 -5 -6 -6 -6 -6 -6 -6 -7 -7 -7 -8 -8 -9 -10 -10 -11 -12 -12 -13 -13 -14 -14 -14 -14 -14 -15 -15 -15 -16 -16 -17 -17 -18 -19 -19 -19 -20 -20 -21 -21 -21 -21 -22 -22
-8 -6 -3 -3 -5 -6 -4 -2 -1 0 2 1 -1 -4 -6 -5 -4 -3 -1 1 2 0 -2 -2 -2 -2 -2 -4 -6 -6 -5 -3 -2 -1 -2 -4 -5 -6 -6 -6 -6 -6 -7 -7 -7 -7 -7 -7 -7 -7 -7 -8 -8 -9 -9 -9 -10 -11 -12 -12 -13 -13 -14 -14 -14 -14 -14 -15 -15 -16 -16 -16 -17 -18 -18 -19 -19 -20 -20 -21 -21 -21 -21 -21 -22 -22
-9 -8 -5 -3 -5 -7 -4 -2 -2 -0 2 1 -2 -5 -6 -6 -6 -4 -1 2 1 -1 -3 -2 -2 -2 -3 -5 -6 -5 -4 -3 -1 -1 -2 -3 -5 -6 -6 -7 -8 -8 -8 -7 -7 -7 -7 -7 -7 -8 -8 -8 -8 -8 -9 -9 -10 -11 -12 -12 -13 -14 -14 -14 -14 -14 -14 -15 -15 -16 -16 -17 -17 -18 -19 -19 -20 -20 -20 -21 -21 -21 -21 -21 -22 -22
-7 -7 -6 -5 -5 -6 -5 -3 -3 -2 0 -1 -3 -5 -6 -7 -6 -3 1 3 1 -3 -5 -3 -3 -3 -4 -5 -7 -5 -3 -2 -0 -1 -4 -6 -7 -7 -7 -8 -9 -9 -8 -7 -7 -7 -7 -8 -8 -8 -8 -8 -7 -8 -9 -9 -11 -11 -12 -12 -13 -14 -13 -13 -13 -14 -15 -15 -16 -16 -16 -17 -17 -18 -19 -19 -20 -20 -21 -21 -21 -21 -22 -22 -22 -22
-7 -8 -8 -7 -5 -6 -5 -3 -3 -2 -1 -3 -4 -5 -7 -7 -4 -0 2 2 -0 -3 -5 -5 -3 -4 -5 -6 -6 -5 -3 -2 -3 -5 -7 -7 -7 -8 -9 -9 -9 -8 -8 -8 -8 -8 -8 -8 -8 -8 -8 -8 -8 -9 -9 -10 -11 -11 -12 -13 -13 -13 -12 -12 -13 -15 -15 -15 -16 -16 -17 -17 -18 -18 -19 -19 -20 -21 -21 -21 -21 -22 -22 -22 -22 -22
-7 -8 -10 -9 -7 -7 -7 -5 -4 -2 -1 -4 -6 -7 -7 -4 -0 1 -1 -4 -5 -5 -5 -5 -4 -5 -6 -6 -6 -4 -3 -5 -6 -6 -6 -6 -6 -7 -10 -10 -10 -9 -8 -8 -8 -8 -8 -8 -9 -9 -8 -8 -9 -9 -10 -11 -11 -11 -12 -13 -13 -12 -11 -13 -14 -15 -15 -16 -16 -17 -17 -18 -18 -19 -19 -20 -20 -21 -21 -21 -22 -22 -22 -22 -22 -23
-5 -5 -7 -8 -7 -7 -8 -7 -4 -1 -2 -6 -6 -6 -6 -2 1 -0 -3 -6 -8 -7 -5 -5 -5 -5 -6 -7 -7 -6 -5 -6 -7 -6 -7 -8 -7 -8 -10 -11 -10 -9 -8 -8 -8 -8 -8 -9 -9 -8 -8 -9 -10 -10 -11 -12 -12 -12 -13 -13 -12 -11 -12 -14 -15 -15 -16 -16 -17 -17 -17 -18 -19 -19 -20 -20 -21 -21 -21 -22 -22 -22 -22 -23 -23 -23
-4 -3 -4 -6 -6 -6 -6 -5 -3 -1 -4 -6 -3 -2 -4 -3 -3 -4 -3 -3 -6 -8 -6 -5 -5 -6 -6 -6 -7 -7 -7 -7 -7 -8 -8 -8 -9 -10 -12 -11 -10 -9 -9 -8 -8 -8 -8 -9 -9 -9 -9 -10 -10 -11 -12 -12 -12 -13 -13 -12 -11 -12 -13 -14 -15 -16 -16 -17 -17 -17 -18 -18 -19 -20 -20 -20 -21 -21 -22 -22 -22 -22 -23 -23 -23 -24
-3 -4 -4 -4 -4 -4 -4 -3 -3 -4 -7 -7 -3 -2 -4 -5 -6 -7 -5 -3 -5 -7 -7 -5 -5 -6 -7 -7 -7 -8 -8 -8 -8 -8 -8 -8 -9 -11 -11 -11 -10 -9 -8 -8 -8 -8 -9 -9 -9 -9 -10 -10 -11 -11 -12 -12 -13 -13 -13 -11 -12 -13 -14 -14 -16 -16 -16 -17 -17 -17 -18 -19 -19 -20 -20 -21 -21 -22 -22 -22 -22 -23 -23 -24 -24 -24
-6 -8 -7 -4 -4 -4 -4 -3 -4 -6 -7 -7 -5 -5 -7 -7 -8 -8 -7 -4 -4 -6 -7 -7 -6 -7 -8 -7 -7 -7 -7 -7 -8 -9 -9 -8 -9 -11 -11 -11 -10 -9 -9 -9 -9 -9 -9 -10 -10 -11 -11 -11 -11 -11 -12 -12 -13 -13 -12 -12 -12 -14 -14 -15 -16 -16 -17 -17 -17 -18 -19 -19 -20 -20 -20 -21 -22 -22 -22 -22 -23 -23 -23 -24 -24 -24
-8 -9 -7 -4 -4 -3 -1 -2 -5 -6 -5 -6 -6 -6 -6 -7 -8 -9 -8 -6 -6 -7 -7 -8 -8 -8 -9 -9 -8 -6 -6 -7 -8 -8 -9 -10 -10 -11 -12 -12 -11 -10 -9 -9 -9 -9 -10 -11 -12 -12 -11 -11 -11 -11 -11 -12 -13 -12 -12 -13 -14 -14 -15 -16 -17 -17 -17 -18 -18 -18 -19 -19 -20 -20 -21 -21 -22 -22 -22 -22 -23 -23 -23 -23 -24 -24
-6 -8 -6 -5 -5 -3 -1 -3 -6 -7 -7 -8 -7 -6 -6 -6 -7 -9 -9 -8 -9 -9 -10 -11 -11 -10 -9 -10 -9 -8 -7 -8 -8 -7 -8 -10 -10 -11 -13 -12 -11 -10 -9 -9 -9 -10 -11 -11 -11 -11 -11 -11 -10 -11 -11 -12 -12 -12 -12 -14 -14 -15 -16 -17 -17 -17 -18 -18 -18 -19 -19 -19 -20 -21 -21 -21 -22 -22 -22 -22 -23 -23 -23 -23 -23 -24
-7 -7 -5 -5 -5 -5 -3 -3 -4 -5 -5 -6 -6 -7 -7 -6 -5 -7 -9 -10 -10 -10 -11 -12 -13 -12 -10 -10 -10 -10 -8 -8 -9 -9 -8 -9 -10 -12 -12 -12 -11 -10 -10 -10 -10 -10 -11 -11 -11 -11 -11 -10 -10 -11 -11 -12 -12 -12 -13 -14 -15 -16 -16 -17 -17 -18 -18 -18 -19 -19 -19 -20 -20 -21 -21 -21 -22 -22 -22 -22 -22 -23 -22 -22 -23 -23
-8 -5 -6 -6 -5 -4 -3 -2 -2 -2 -2 -1 -3 -5 -6 -7 -7 -7 -8 -9 -10 -9 -9 -10 -12 -14 -14 -12 -12 -11 -9 -8 -10 -11 -10 -10 -11 -11 -11 -11 -12 -11 -10 -10 -11 -11 -11 -11 -11 -11 -11 -10 -11 -12 -12 -12 -12 -12 -13 -14 -14 -15 -16 -17 -18 -19 -19 -19 -19 -19 -19 -20 -20 -21 -21 -22 -22 -22 -22 -22 -22 -23 -23 -22 -22 -23
-6 -3 -5 -4 -2 -1 -2 -1 -2 -2 -1 -1 -3 -4 -6 -9 -9 -8 -8 -9 -9 -10 -11 -10 -9 -11 -12 -13 -14 -13 -11 -10 -11 -11 -12 -12 -12 -12 -12 -12 -12 -11 -10 -10 -11 -12 -12 -11 -12 -12 -12 -11 -11 -12 -12 -12 -12 -13 -13 -14 -14 -15 -16 -17 -18 -19 -19 -19 -19 -19 -19 -20 -20 -21 -21 -22 -22 -22 -22 -22 -22 -22 -22 -22 -23 -23
Height
831 828 827 824 823 823 824 826 826 830 828 822 824 824 823 822 826 837 843 849 847 845 859 865 872 888 893 895 899 898 900 901 902 903 904 906 906 906 907 907 908 908 909 909 907 906 904 902 901 900 899 898 897 895 894 892 891 889 887 886 884 882 881 879 878 876 875 874 873 873 871 870 869 868 866 865 863 862 861 859 857 855 853 852 850 848
833 825 824 827 831 831 830 832 832 832 830 827 826 826 827 824 830 844 847 850 850 844 860 875 877 888 894 896 900 899 900 902 902 904 904 906 907 907 908 908 908 909 909 909 907 906 905 903 902 901 899 899 898 896 895 893 893 891 889 888 886 885 884 882 881 880 878 877 877 876 875 874 873 871 869 868 866 865 864 862 860 858 856 855 853 851
831 824 830 839 842 840 837 836 832 831 831 829 827 825 827 827 835 847 849 852 850 842 856 872 875 886 896 897 900 901 902 904 904 905 905 905 907 907 908 908 908 910 910 908 907 906 906 905 903 902 901 900 899 898 897 896 894 893 891 890 889 888 886 885 884 882 881 880 879 879 878 877 875 874 872 871 870 868 866 864 862 861 859 857 856 854
827 828 840 847 845 840 838 838 834 832 832 828 827 825 825 831 833 835 844 855 853 847 854 864 869 883 896 899 902 903 903 906 906 906 907 906 907 907 907 909 908 909 909 907 907 907 906 906 904 903 902 901 901 899 898 897 896 895 894 892 891 890 889 887 886 885 884 883 881 880 879 878 877 876 875 873 872 870 868 867 865 863 862 860 858 857
832 842 849 849 847 840 836 838 835 831 831 831 830 825 824 835 837 833 843 853 855 854 857 860 856 861 882 893 896 903 904 904 906 906 908 907 907 909 908 909 910 909 909 908 907 908 907 907 905 904 904 903 902 901 900 899 898 897 896 894 893 892 891 890 888 887 886 884 883 882 880 879 878 876 875 873 872 871 870 869 867 866 865 863 861 859
837 850 851 847 847 842 836 836 836 831 829 830 832 828 826 832 839 843 846 845 844 845 850 854 836 832 870 890 887 898 903 901 904 903 905 907 906 908 907 908 910 909 909 909 908 909 908 908 907 906 905 904 904 903 902 901 900 899 898 896 895 894 893 891 890 888 887 886 884 883 882 881 880 878 877 876 876 875 874 872 871 869 868 866 864 862
843 851 851 846 843 842 837 835 840 839 828 827 834 835 832 833 839 843 842 838 833 833 845 853 833 825 858 880 882 895 900 897 901 901 901 904 904 905 907 907 908 909 909 910 909 909 909 908 908 907 906 906 905 905 904 903 902 901 899 898 897 896 895 893 892 890 889 888 886 885 885 884 883 882 882 881 880 879 877 876 874 872 870 868 866 864
850 848 848 846 840 840 835 833 846 847 829 828 842 844 837 836 839 840 838 835 830 835 849 854 845 831 835 859 880 891 896 896 898 898 897 900 902 903 905 906 907 909 909 910 910 909 910 909 908 908 907 907 907 906 906 905 903 902 901 900 899 897 897 895 894 893 891 890 889 888 887 887 886 886 885 884 882 881 879 878 875 874 872 870 868 867
858 849 849 848 838 835 837 842 853 851 835 837 852 850 841 840 840 838 837 834 835 841 842 843 852 839 823 856 891 888 890 895 891 892 894 896 900 901 904 906 907 909 909 909 910 910 910 909 909 909 908 908 908 907 907 906 905 903 902 902 900 899 898 897 896 894 893 892 891 890 889 889 888 888 887 886 884 882 881 879 877 875 874 872 870 869
862 856 858 853 842 839 847 855 858 853 842 845 854 849 847 847 844 845 840 836 844 846 838 837 848 837 820 853 890 887 883 882 877 883 888 892 897 899 902 905 906 909 909 910 910 910 910 910 910 909 909 909 908 908 907 906 906 904 904 903 902 901 899 898 897 896 895 894 893 892 891 891 890 889 888 887 885 883 882 880 878 877 875 874 872 870
861 861 861 859 856 854 858 860 859 860 853 851 851 843 846 847 844 850 843 840 848 843 843 850 851 842 826 837 867 874 867 861 863 876 884 889 895 897 901 903 905 907 908 909 910 910 910 910 910 910 909 910 909 909 908 907 907 905 905 904 903 902 900 899 899 897 896 895 894 894 893 892 891 890 889 888 886 885 883 882 880 879 877 876 874 872
858 858 859 862 865 863 860 856 857 861 856 852 845 836 842 843 843 849 844 850 851 834 848 868 866 858 833 824 847 861 861 857 857 867 877 884 891 894 898 900 903 905 906 908 908 909 910 909 910 910 909 910 909 909 908 907 907 906 905 905 904 903 901 900 900 898 898 897 896 895 894 894 893 892 891 889 888 887 885 884 882 881 879 878 876 874
851 855 862 864 864 864 857 848 851 856 853 851 844 836 839 840 848 851 844 852 847 835 860 875 868 860 832 825 847 855 862 866 861 864 871 879 886 890 896 899 901 904 904 906 907 907 909 908 909 910 909 910 909 909 909 908 908 907 906 906 904 904 902 902 901 900 899 898 897 897 895 895 894 893 892 891 890 889 887 886 884 883 881 879 878 875
847 853 862 860 858 865 859 844 843 847 846 845 840 834 833 839 853 854 846 854 848 845 867 871 862 849 823 832 857 858 866 874 870 870 871 876 884 887 893 897 899 902 903 904 905 906 907 908 909 909 909 910 909 909 909 908 908 907 907 906 905 904 903 902 902 901 900 899 898 898 897 896 895 894 894 893 892 890 889 888 886 885 883 881 880 877
839 841 855 860 858 865 864 856 854 849 843 845 847 842 833 832 837 838 836 840 841 848 865 871 858 827 810 841 869 868 874 877 875 876 875 878 885 887 893 896 897 900 901 903 904 905 906 907 908 909 909 909 909 909 909 909 908 907 907 906 905 905 904 903 903 901 901 900 900 899 898 897 897 896 895 894 893 892 890 889 887 886 884 883 881 879
849 844 860 870 867 868 866 866 870 858 843 846 855 850 841 833 831 846 858 855 854 853 855 858 842 820 833 868 879 875 877 878 878 880 880 883 886 888 892 894 896 898 899 902 903 904 906 907 908 908 909 909 909 909 909 909 908 908 907 907 906 905 904 904 903 902 902 901 901 900 899 898 897 897 896 895 894 892 891 890 888 887 885 883 882 880
854 853 870 873 868 873 871 868 873 863 846 846 850 846 849 850 845 855 870 876 873 852 837 840 831 823 843 864 872 877 876 877 880 880 880 883 885 888 890 891 894 895 897 900 901 903 905 905 907 907 908 909 908 909 909 908 908 907 907 907 906 906 905 904 904 903 902 902 901 900 900 899 898 897 896 895 894 893 892 890 889 887 885 884 882 880
848 848 869 875 865 871 878 872 871 870 860 851 846 847 853 858 854 848 850 861 867 849 832 834 831 820 817 833 867 882 873 873 878 877 880 882 883 887 887 888 891 892 896 898 899 902 903 904 906 906 907 908 908 908 908 908 907 907 907 906 906 905 905 904 903 903 903 902 901 901 900 899 898 898 897 896 895 893 892 890 889 887 885 884 882 879
852 841 860 882 871 868 877 871 862 866 870 861 854 857 855 847 845 847 849 850 853 848 836 833 841 831 806 817 856 869 862 867 871 873 878 879 881 883 883 886 889 891 894 896 898 900 901 903 904 905 906 906 907 907 907 907 907 906 906 906 906 905 904 904 904 903 903 902 902 901 900 900 899 898 897 896 895 893 892 890 888 887 885 883 882 879
859 841 848 876 877 869 869 862 853 853 863 866 862 863 861 851 844 844 847 843 838 840 838 837 843 826 803 813 834 840 847 857 862 868 873 874 877 878 879 883 886 889 892 893 896 898 899 902 903 904 905 905 906 907 906 907 906 906 906 905 905 905 904 904 904 903 903 902 902 901 900 900 899 898 897 896 895 893 892 890 888 887 885 883 881 879
862 848 845 868 879 869 861 865 866 861 862 860 856 858 860 860 858 851 850 854 849 839 836 843 831 804 812 839 840 834 843 849 854 863 866 870 873 874 877 880 882 886 889 890 893 895 897 900 901 902 904 904 905 905 905 906 905 905 905 905 905 904 904 904 903 903 903 902 902 901 900 900 899 898 897 895 894 893 891 890 888 886 885 883 881 879
859 851 850 864 869 861 868 888 895 890 885 873 863 860 857 857 857 847 851 870 875 855 844 852 830 802 830 862 853 847 850 847 853 859 862 867 870 871 875 877 880 883 885 888 891 893 896 897 899 901 902 903 903 904 904 904 904 904 904 904 904 904 903 903 903 902 902 901 901 901 900 899 898 897 896 895 893 892 890 889 887 885 884 882 881 879
867 857 855 866 872 873 885 900 902 900 900 891 882 878 871 864 852 836 837 858 878 875 867 869 846 821 847 868 858 858 858 851 854 858 860 865 866 870 874 874 879 881 882 887 889 891 894 895 897 899 900 901 902 902 903 903 903 903 903 903 903 903 903 902 902 902 901 901 900 900 899 898 898 896 895 894 893 891 890 888 887 885 883 882 880 878
869 857 854 864 874 881 891 900 903 906 903 889 884 887 884 876 865 857 856 856 863 866 863 866 848 826 848 868 860 862 863 857 858 857 859 865 865 869 872 872 877 879 881 885 886 889 892 893 896 897 897 899 899 900 901 901 902 902 901 902 902 902 902 901 901 901 900 900 900 899 899 897 897 896 894 894 892 890 889 887 886 884 882 881 879 878
861 850 849 855 862 867 874 879 882 892 897 886 882 893 895 890 885 881 879 870 859 852 848 846 831 821 847 867 860 862 864 859 860 859 860 864 864 866 870 872 875 877 879 883 884 887 890 890 893 894 895 897 897 898 899 899 900 900 900 901 900 901 901 900 901 900 899 900 899 898 898 896 896 895 893 893 891 890 888 886 885 884 882 880 879 877
865 857 850 843 840 841 842 846 857 869 880 883 889 899 899 895 886 870 864 861 853 855 854 835 817 825 855 866 858 859 861 858 859 860 860 862 862 865 868 870 873 876 878 881 882 885 887 888 890 891 892 894 894 896 897 897 898 898 898 899 899 899 900 899 900 899 898 899 898 897 897 895 895 894 892 892 890 889 887 886 885 883 881 880 878 876
876 874 870 854 839 840 843 858 885 887 874 872 883 893 894 895 890 873 860 851 848 859 856 829 817 831 847 855 858 860 859 857 857 858 861 862 862 864 867 869 872 874 876 878 880 882 885 886 887 889 890 891 892 893 894 895 896 896 897 897 897 898 898 898 898 898 897 897 896 896 895 894 894 892 891 890 889 888 886 885 884 882 881 879 877 876
871 867 884 881 870 884 891 896 915 908 884 877 879 882 888 893 893 881 861 847 847 850 839 825 827 830 828 839 853 856 857 857 856 856 859 860 861 864 866 868 871 873 874 877 879 880 882 883 884 886 887 888 890 891 892 893 893 894 895 895 896 896 896 897 896 896 896 896 895 895 894 893 892 891 890 889 887 887 885 884 883 881 880 878 876 875
866 862 893 898 887 910 923 916 921 914 899 899 893 885 887 889 889 880 862 855 851 835 826 839 847 834 823 831 841 847 852 853 852 853 855 858 861 864 866 868 870 871 873 875 876 877 879 880 881 883 884 885 887 888 889 890 891 892 893 893 894 894 894 895 895 894 895 894 894 893 892 892 891 889 889 887 886 885 884 883 882 880 879 877 876 875
870 867 902 907 889 905 921 919 922 916 902 902 899 893 890 886 884 876 863 865 863 843 840 861 867 850 837 837 840 845 848 848 850 854 856 858 861 863 866 867 867 868 870 872 873 874 875 877 878 880 881 883 884 885 886 887 888 889 890 891 891 892 892 893 893 893 893 893 892 892 891 890 889 888 887 886 885 884 883 881 880 879 878 876 875 874
873 873 904 905 879 888 913 919 917 913 906 899 893 893 894 889 889 884 874 875 875 862 854 862 865 853 841 839 843 847 849 850 853 855 855 857 858 860 863 863 863 865 866 868 870 871 872 874 875 877 878 879 880 882 883 884 885 886 887 888 889 889 890 891 891 891 891 891 891 890 889 889 888 887 886 885 884 883 881 880 879 878 877 875 874 873
876 884 904 896 865 871 908 918 909 911 913 901 889 887 890 887 883 878 873 870 865 855 853 858 853 837 828 834 841 844 849 850 849 850 852 853 855 857 858 859 860 861 862 864 866 868 869 871 872 874 875 876 877 878 880 881 882 883 884 885 886 887 888 888 889 889 889 889 889 888 888 887 886 886 885 884 883 881 880 879 878 877 876 874 873 871
885 880 886 884 861 866 905 919 910 904 884 859 855 859 862 868 870 867 866 863 857 850 847 844 834 823 826 836 838 842 849 849 845 845 846 847 851 854 854 855 856 857 859 861 862 864 866 867 869 870 871 873 874 875 876 878 879 880 881 883 884 885 886 886 887 887 887 887 887 886 886 885 885 884 883 882 881 880 879 878 877 876 874 873 872 870
893 875 878 884 860 863 903 917 901 877 840 823 843 856 852 852 854 854 851 848 849 848 838 828 825 828 836 836 832 837 843 843 842 841 840 844 847 850 851 852 853 855 857 858 860 862 863 864 866 867 868 870 871 872 874 875 876 878 879 880 881 882 883 884 884 885 885 885 885 885 884 884 883 882 881 880 879 878 877 876 875 874 873 872 870 869
887 877 888 895 874 872 898 896 866 838 823 835 861 868 858 852 849 847 843 838 843 844 837 831 828 830 834 833 831 836 838 840 843 842 841 843 843 845 849 849 851 853 854 856 858 859 861 862 863 865 866 867 868 870 871 872 874 875 876 878 879 880 881 882 882 882 883 883 883 882 882 882 881 880 879 879 877 877 876 875 874 873 872 870 869 868
880 879 885 892 885 878 880 869 839 819 826 848 863 865 862 857 854 850 841 832 833 836 837 834 827 825 831 834 836 841 842 843 844 842 842 843 842 844 845 846 848 851 852 854 856 856 858 860 860 862 864 865 866 867 868 870 871 872 874 875 876 877 878 879 879 880 880 880 880 880 880 879 879 878 877 876 876 875 874 873 872 871 870 869 867 866
880 878 873 876 884 879 869 859 840 824 823 831 840 851 852 846 844 841 828 816 814 821 828 828 823 823 829 834 840 845 845 843 839 836 838 840 841 843 843 844 846 848 850 852 853 854 856 857 858 860 861 862 864 865 866 867 868 870 872 873 874 875 876 876 877 877 877 878 878 878 878 877 876 876 875 875 874 873 872 872 871 869 868 867 866 865
884 879 867 863 879 887 874 860 848 832 818 814 824 839 843 840 841 839 828 813 805 810 818 819 819 821 825 834 843 844 843 841 834 828 830 835 838 840 842 844 845 846 849 850 851 853 854 855 857 858 859 861 862 863 864 865 866 868 869 870 871 872 873 873 874 874 875 875 875 875 875 875 874 874 873 872 872 871 870 870 869 868 867 865 864 863
887 885 875 866 878 888 875 858 850 833 815 814 828 840 844 845 844 840 828 810 802 810 817 816 817 820 824 833 841 841 840 837 826 822 827 832 834 837 839 842 844 846 847 848 850 852 853 854 856 856 858 859 859 861 862 863 864 866 866 867 868 869 870 870 870 872 872 872 873 873 872 872 872 871 871 870 870 869 868 868 867 866 865 863 862 861
882 881 879 872 875 882 873 858 852 837 821 824 835 840 844 847 845 836 817 799 801 815 820 815 817 820 824 832 840 839 834 826 820 821 828 831 833 836 838 840 842 844 845 847 849 850 851 853 854 854 856 857 858 859 860 861 862 863 864 865 866 866 867 867 868 869 870 870 870 870 870 869 869 869 868 868 867 867 866 865 865 863 863 862 861 859
885 887 890 882 875 879 875 861 851 837 826 831 838 840 845 848 841 826 806 798 807 817 820 819 818 820 825 832 835 831 825 823 824 827 830 832 834 836 837 839 841 842 844 846 847 849 850 851 852 853 854 855 856 857 858 859 860 860 861 863 862 863 863 864 865 867 867 867 868 867 867 867 866 866 866 865 865 864 863 863 862 861 861 859 858 857
881 887 895 891 880 881 879 871 858 835 820 828 839 844 847 838 822 811 807 813 819 818 818 821 820 820 826 830 828 825 824 828 831 830 831 833 834 835 837 839 840 841 843 844 846 847 848 849 850 851 852 853 854 855 855 857 857 857 859 859 859 859 861 862 863 864 864 864 865 864 864 864 864 863 863 863 862 861 861 861 860 859 858 857 856 855
859 861 872 879 877 880 885 880 859 828 817 828 837 842 842 826 807 805 812 819 824 821 819 820 820 822 825 827 827 827 828 831 833 832 834 834 834 836 837 838 839 841 841 843 844 845 846 847 848 849 850 851 852 852 853 854 854 855 856 855 855 857 858 859 861 861 861 862 861 862 862 861 861 861 860 860 860 859 858 858 857 857 856 855 854 853
845 842 849 858 858 861 867 860 835 815 819 827 819 817 824 818 811 815 814 813 819 823 820 819 820 822 823 824 827 829 830 832 833 833 834 835 835 836 837 837 839 839 839 841 842 842 844 844 845 846 847 848 849 849 850 851 851 852 852 851 853 855 855 856 857 857 858 858 858 859 859 858 858 858 857 857 857 856 856 855 855 854 853 853 852 851
831 834 838 839 838 839 838 829 819 820 829 828 814 810 817 817 819 822 817 812 817 821 820 819 819 821 823 823 825 828 830 831 831 832 833 833 833 835 835 835 836 836 838 839 839 840 842 842 843 844 844 845 846 846 847 848 848 849 848 848 851 852 852 853 854 854 855 855 855 856 856 855 856 855 855 855 854 853 853 853 852 852 851 850 850 849
839 846 840 833 832 831 823 816 820 826 828 824 818 817 820 820 821 823 820 816 817 818 819 820 818 819 822 823 824 826 826 826 829 830 831 831 832 833 833 834 834 835 836 837 837 838 839 839 840 841 841 842 843 843 844 845 845 844 845 846 848 848 849 850 850 850 851 852 852 853 852 852 852 852 852 852 851 851 850 850 849 849 848 848 847 846
843 848 840 833 831 825 811 808 818 821 819 821 820 817 818 820 821 822 820 818 818 819 820 821 820 821 823 823 823 823 822 824 826 827 828 830 830 830 831 831 832 832 833 833 835 835 836 837 837 837 837 838 839 840 841 841 841 841 842 844 845 845 845 846 847 847 848 848 849 849 849 849 849 849 849 849 848 848 847 846 846 846 845 844 844 843
833 839 836 832 831 823 809 808 818 821 820 822 822 817 816 815 815 819 820 819 820 821 820 821 822 822 823 823 823 822 821 823 824 824 825 827 826 827 828 828 828 829 830 830 832 832 833 834 833 833 834 834 835 836 837 837 837 838 840 840 841 841 842 842 843 843 844 845 845 845 845 846 846 846 845 845 845 844 843 843 843 842 841 841 840 840
834 834 829 827 828 824 813 807 812 817 815 813 814 814 813 810 811 816 818 818 820 820 820 821 822 821 821 821 822 822 822 821 822 823 823 824 824 825 825 825 825 826 827 828 829 829 830 830 830 830 830 830 831 833 833 833 834 835 836 837 837 838 838 838 839 840 840 841 841 841 842 842 842 842 842 842 841 841 840 840 839 838 838 837 837 837
832 824 826 828 822 815 807 799 801 804 801 798 802 806 807 808 811 813 814 816 817 816 817 819 819 820 821 820 820 822 821 819 820 822 822 821 822 822 822 823 824 824 824 826 826 826 827 827 827 827 827 827 829 829 829 830 831 831 833 834 833 834 834 834 835 836 836 837 837 837 838 838 838 839 839 838 838 837 836 836 836 835 834 834 833 833
815 807 813 813 802 796 794 794 797 799 795 795 800 803 805 808 810 810 811 811 811 812 814 816 816 817 818 818 818 820 818 817 819 820 820 820 820 820 821 821 821 821 822 823 823 823 824 823 824 824 824 824 825 825 825 826 827 827 829 830 830 830 830 831 832 832 831 832 833 833 834 835 834 835 835 835 834 834 833 832 832 831 831 831 830 830
Wind_Speed
1 4 6 5 4 6 6 2 2 4 2 3 6 4 5 6 3 3 4 4 1 2 4 4 8 9 6 5 5 4 4 5 5 4 4 4 3 4 4 4 4 4 4 4 6 8 10 11 12 13 16 17 20 24 26 28 30 30 30 31 31 31 30 29 29 27 27 24 20 21 24 26 31 35 37 39 40 39 39 39 39 38 38 37 36 36
2 6 5 1 2 1 2 3 3 2 2 3 5 5 5 5 2 3 3 3 2 2 3 6 8 7 5 5 4 3 4 3 3 4 4 4 4 3 4 4 4 3 2 4 7 9 10 12 12 13 16 18 20 23 26 27 28 29 31 31 31 31 31 30 28 27 26 24 21 20 20 22 28 32 34 37 38 39 39 39 38 38 38 38 37 37
5 5 3 4 3 2 4 3 3 2 3 3 4 5 5 4 4 3 2 4 2 2 4 7 5 4 4 3 3 2 2 3 2 3 3 3 4 4 4 4 3 3 2 4 8 9 10 11 12 13 15 17 18 21 24 25 27 29 30 30 31 31 31 31 29 28 26 26 25 25 25 25 28 32 33 35 36 37 38 38 38 38 38 38 38 38
5 2 4 3 0 4 5 3 4 4 4 4 4 5 4 5 4 2 2 4 3 2 4 9 5 2 4 3 3 3 2 4 3 3 3 2 3 3 4 3 3 3 3 5 7 8 9 10 12 13 13 15 17 19 22 25 26 27 28 29 30 30 31 31 31 30 28 27 27 25 26 27 28 31 33 35 37 37 37 38 38 38 37 37 38 38
2 3 3 1 1 3 5 6 6 6 5 4 5 6 3 6 4 1 5 5 3 4 6 8 4 3 7 7 5 4 4 4 4 4 4 2 3 3 3 3 3 3 3 4 5 7 8 9 11 12 12 13 15 17 19 21 23 24 26 27 29 29 31 31 31 32 31 31 30 26 25 24 24 29 33 34 36 37 37 37 38 37 36 36 37 37
3 3 0 4 4 4 6 7 6 6 6 5 6 7 4 6 5 4 7 6 2 3 7 7 6 4 6 8 7 6 5 6 5 5 5 4 5 4 4 4 3 3 3 4 5 6 7 8 9 10 12 13 14 15 16 18 20 22 24 26 28 29 30 31 32 32 33 33 32 29 26 23 21 24 29 30 30 32 34 35 36 35 35 35 36 36
2 2 2 4 6 6 6 6 3 3 6 5 3 4 4 5 7 7 8 7 4 2 4 6 7 4 3 7 9 8 6 7 7 6 7 6 6 5 4 4 4 4 4 4 4 5 6 7 8 10 11 11 12 12 13 17 20 22 24 26 27 28 30 31 31 32 33 33 33 31 27 25 22 20 22 26 28 29 31 33 34 35 35 35 35 35
2 2 2 4 7 7 6 4 3 3 6 3 2 2 5 6 8 9 8 7 4 1 2 4 5 6 4 4 7 9 8 7 8 8 8 7 7 6 5 5 5 4 3 4 4 5 6 6 7 8 9 9 9 10 12 15 19 21 23 24 26 27 29 30 31 32 32 32 32 32 28 26 24 21 20 25 29 29 31 33 34 34 35 35 35 35
3 2 2 3 7 6 3 1 2 2 4 1 3 1 3 4 5 6 7 6 1 0 4 6 4 6 6 2 5 8 8 8 11 12 11 9 9 8 7 6 5 4 4 4 4 4 5 6 7 7 8 8 8 9 11 14 17 19 21 22 24 26 27 29 30 31 31 31 31 31 30 27 25 23 21 24 28 30 31 32 34 34 34 35 35 35
2 2 2 1 2 2 2 3 2 2 2 3 4 4 5 4 3 2 5 4 2 4 7 7 8 7 5 3 6 7 8 10 11 11 10 10 10 9 8 7 7 6 5 4 5 5 5 5 6 6 7 7 8 9 11 13 15 17 19 20 23 25 26 27 28 29 30 30 30 30 30 28 27 26 24 25 29 30 31 32 33 33 33 34 34 34
1 1 0 2 2 1 2 2 1 1 1 3 6 6 7 4 3 2 1 1 3 7 4 3 5 5 5 3 7 6 4 7 10 10 10 11 10 10 8 8 8 7 6 5 5 5 5 5 6 6 6 7 7 8 11 13 14 16 17 19 21 23 25 26 27 28 28 29 29 29 28 28 28 27 26 26 29 30 30 31 31 31 31 32 33 33
2 1 1 2 2 2 1 2 2 1 1 2 3 5 5 3 3 2 1 2 7 7 1 1 1 4 6 3 4 5 1 3 8 11 14 14 12 11 9 9 8 7 6 6 6 7 6 6 6 6 6 6 6 7 9 11 13 15 16 17 19 22 23 24 25 26 27 27 28 28 27 27 27 27 25 24 26 27 26 27 28 28 29 30 31 32
2 2 2 1 1 2 2 3 4 2 3 2 2 6 6 4 4 5 4 4 7 4 1 1 0 4 7 1 4 7 4 2 3 7 13 15 14 12 10 9 8 7 7 7 6 7 7 6 6 6 5 5 5 6 7 9 10 13 15 16 18 20 21 22 23 24 25 26 27 27 26 25 25 26 25 23 24 25 24 24 26 26 26 27 29 30
3 2 1 2 2 4 3 3 3 3 5 4 4 6 7 6 5 7 6 3 5 2 1 1 1 5 6 1 5 6 6 3 2 3 10 13 13 12 11 10 8 8 7 6 7 7 7 7 6 5 5 4 5 5 6 7 9 9 12 15 16 18 20 21 22 23 24 24 25 25 26 25 24 25 24 23 24 25 24 23 24 24 24 25 26 27
5 3 2 1 0 3 2 1 1 1 4 3 0 1 5 5 4 6 5 3 3 1 2 2 1 4 4 2 4 4 5 4 3 4 8 9 10 10 10 9 9 8 7 6 7 8 7 7 6 5 5 4 4 4 4 6 7 8 10 13 15 16 18 19 20 21 22 22 23 23 24 25 24 23 23 22 23 24 24 24 24 24 24 24 24 25
3 2 2 1 2 3 3 2 3 2 3 2 2 1 3 3 1 0 1 1 1 1 2 4 3 2 1 3 4 3 4 4 4 6 8 9 10 10 9 9 9 8 8 7 7 8 8 7 6 6 5 5 4 4 4 5 6 7 9 11 13 14 16 17 18 19 20 20 21 21 22 23 23 23 22 23 23 24 24 24 24 24 24 24 24 24
2 0 2 0 0 2 3 2 2 3 2 3 3 4 2 2 2 2 1 1 1 5 3 4 5 2 2 2 5 6 5 6 7 7 9 9 10 10 9 9 9 8 8 8 8 9 9 8 7 6 6 5 4 4 4 5 7 8 8 9 11 12 13 15 16 17 18 18 19 20 21 21 22 23 22 23 23 24 24 23 23 23 23 24 24 24
1 1 1 1 1 2 1 2 1 2 2 1 3 3 2 1 1 0 3 1 2 8 4 3 6 6 4 2 4 7 9 9 10 10 10 10 11 11 9 9 10 9 9 9 9 10 10 9 8 7 6 6 5 5 5 6 7 8 8 9 10 11 12 13 14 15 16 17 18 18 19 20 21 21 22 22 23 23 24 23 23 23 23 23 23 23
1 2 1 1 1 2 1 3 2 1 1 1 1 1 1 3 3 2 3 3 4 7 5 3 3 6 8 5 5 10 14 13 13 12 12 12 12 11 10 11 11 10 9 8 9 10 11 10 10 9 8 7 7 6 6 6 7 8 8 9 9 10 11 12 12 13 14 15 16 16 17 18 19 19 20 21 22 23 23 23 23 23 22 23 22 22
0 2 1 1 2 3 1 3 4 3 2 1 1 0 1 2 3 2 2 2 4 6 4 2 1 4 6 3 6 11 14 15 15 14 13 13 13 11 10 10 11 10 9 8 9 10 12 11 11 10 9 8 8 7 7 7 7 7 8 8 8 8 9 10 10 11 12 13 14 14 15 16 17 18 19 20 21 22 22 22 23 22 22 22 21 21
1 1 2 2 1 3 1 1 1 0 1 2 4 4 2 1 1 1 1 0 2 4 3 3 5 4 1 2 1 4 7 13 15 13 12 12 12 11 10 10 10 10 9 9 9 11 12 12 11 10 9 9 9 8 9 9 8 7 7 7 7 7 7 8 9 9 10 11 12 13 13 14 16 17 18 19 20 21 21 21 21 21 21 21 20 20
1 2 2 2 2 3 1 2 3 3 2 1 2 2 2 2 2 4 4 1 1 3 2 1 6 4 2 2 1 2 2 9 12 12 11 11 12 11 10 11 10 10 10 10 11 12 13 13 12 11 10 10 10 9 9 9 9 8 7 6 6 6 6 6 7 7 8 9 10 11 12 14 15 17 18 19 19 21 21 21 21 20 20 20 19 19
0 1 2 2 1 1 2 2 1 3 3 2 2 1 1 1 3 6 6 3 2 1 1 1 4 3 1 1 1 2 0 5 10 11 10 10 11 11 10 11 10 10 9 10 12 13 13 13 13 12 11 11 10 10 10 10 9 9 7 6 5 4 4 4 5 5 6 8 9 10 12 13 15 16 17 18 19 20 20 20 20 19 19 19 18 19
1 1 2 1 0 1 1 1 1 1 2 3 3 1 1 2 1 1 2 0 2 4 3 2 4 3 1 1 0 1 0 3 7 9 9 9 9 10 11 10 10 10 9 10 12 12 12 13 12 12 12 12 11 11 11 11 11 10 8 7 5 4 3 2 3 3 5 7 8 9 11 13 14 16 17 17 18 20 20 20 19 19 19 18 18 18
1 2 3 2 1 2 2 3 3 2 2 3 2 1 0 1 3 2 0 0 3 5 6 6 7 3 3 1 1 2 2 5 6 7 8 9 8 9 10 9 9 9 9 9 10 11 12 13 13 13 13 13 12 12 13 13 12 11 10 8 6 4 3 2 1 2 4 5 7 8 10 13 14 16 17 17 18 19 19 19 19 18 18 18 18 18
1 1 3 4 5 5 3 2 2 2 3 2 2 2 2 3 4 2 1 3 5 3 5 9 8 1 2 1 4 5 5 7 8 8 8 8 9 9 9 8 8 8 9 10 10 11 12 13 13 14 13 13 13 13 14 14 14 13 11 9 8 6 5 3 1 1 3 5 7 8 11 13 14 16 17 17 17 18 18 18 18 18 18 17 18 17
0 0 1 2 3 3 0 1 1 1 3 3 3 5 5 4 4 2 1 5 5 3 5 10 4 1 2 6 6 6 7 8 8 9 8 8 8 9 8 8 8 7 8 9 9 10 11 12 14 15 14 14 14 14 15 15 15 14 13 11 10 8 7 5 3 2 3 4 6 8 10 12 14 15 16 16 16 16 16 16 17 17 17 17 17 17
2 2 1 1 1 1 1 1 2 2 1 2 2 5 8 7 5 6 8 6 5 4 8 6 4 5 7 7 9 10 9 8 9 10 10 8 8 7 7 7 8 8 8 8 8 10 10 12 14 15 15 14 14 15 16 16 16 15 14 13 12 10 8 6 4 3 3 4 6 8 10 12 13 14 15 15 15 15 15 15 16 16 16 16 16 15
2 2 1 2 0 1 0 1 1 1 2 2 2 4 8 9 9 12 13 7 6 9 8 1 3 10 6 5 8 11 11 11 11 10 8 7 7 7 7 8 9 9 9 9 10 10 11 12 14 14 15 15 15 16 16 17 17 17 16 15 14 12 10 8 6 4 4 5 6 8 10 12 13 14 14 14 14 14 14 15 15 15 15 15 14 14
2 2 2 2 1 1 1 1 1 2 2 3 5 6 7 10 12 13 11 6 6 11 8 1 4 10 6 3 5 5 8 9 6 5 5 7 8 8 8 10 10 10 10 10 11 11 11 13 14 14 14 14 15 17 17 18 19 19 19 17 15 14 11 9 7 6 5 5 6 8 10 12 13 13 14 13 14 14 14 14 15 15 14 13 14 14
2 2 3 2 2 1 1 1 1 1 2 5 6 6 7 9 10 11 10 5 5 11 10 6 10 12 8 8 6 4 5 6 5 6 9 10 10 10 11 11 11 11 11 11 10 10 11 12 13 13 14 15 17 18 18 19 20 21 20 18 17 15 13 11 9 7 6 5 7 9 10 11 12 13 13 13 13 13 13 14 14 14 13 12 13 14
1 2 3 1 3 2 2 1 2 1 3 7 9 10 12 11 8 9 9 8 9 10 6 6 10 10 4 7 8 6 7 9 11 11 11 10 11 12 12 12 12 12 11 11 10 9 10 11 12 13 15 16 17 18 19 20 21 22 22 20 19 17 14 12 10 8 7 7 8 9 10 11 12 12 12 12 12 13 13 13 13 13 12 12 13 14
1 3 3 2 3 2 1 2 2 2 4 6 6 9 15 15 10 7 7 10 14 11 6 6 8 4 3 7 8 7 8 11 12 12 11 11 11 12 12 12 12 11 11 11 10 9 10 11 12 14 15 16 17 19 21 22 23 23 23 22 20 18 16 14 11 10 8 8 8 9 10 11 12 12 11 12 12 12 12 13 12 12 12 12 13 14
2 3 2 2 2 1 1 2 1 3 6 4 0 1 7 12 15 14 11 12 15 12 9 8 5 1 4 6 8 8 9 10 8 9 10 9 9 11 12 12 11 10 10 10 9 9 9 10 11 12 14 16 17 18 19 20 22 22 22 22 21 18 17 15 13 11 10 9 9 9 10 11 12 11 11 12 12 12 12 12 12 11 12 12 13 13
4 2 2 0 1 1 1 1 3 4 4 1 1 1 2 3 9 14 13 11 12 15 14 14 11 6 6 7 4 3 5 4 3 5 7 8 9 10 10 10 10 9 9 8 8 9 10 10 10 11 13 15 16 16 17 19 20 21 21 21 21 19 18 16 14 13 11 10 10 10 10 11 11 12 12 12 12 12 12 11 11 11 11 12 13 13
4 3 2 1 1 1 1 3 4 4 3 0 0 0 1 1 4 6 10 12 14 17 16 17 17 11 8 6 3 1 0 1 2 5 8 9 9 9 9 9 9 10 10 10 10 11 12 12 12 12 14 14 15 16 17 19 20 21 21 21 21 20 19 17 16 14 12 11 11 10 11 11 12 12 12 12 12 12 12 11 11 11 12 13 13 13
3 3 2 1 2 2 1 3 3 7 6 2 1 2 4 4 5 4 4 7 11 14 15 17 18 13 10 7 4 3 1 2 4 6 8 10 9 10 10 8 7 8 10 10 10 11 11 12 12 12 13 13 14 16 17 18 19 20 21 22 22 21 20 18 17 15 13 12 12 11 11 11 12 12 12 12 12 12 11 11 11 12 13 13 13 12
1 1 2 2 2 1 0 2 3 5 5 2 1 2 3 2 3 3 3 4 5 9 14 15 14 12 10 8 6 5 4 3 6 6 7 9 9 10 10 9 8 9 9 10 10 10 10 11 11 12 13 13 14 15 16 18 19 20 22 22 22 22 21 20 19 17 14 13 13 12 12 12 12 13 13 12 12 12 12 12 12 13 13 14 14 14
2 2 0 2 1 2 2 3 3 4 4 1 1 2 3 2 2 1 3 3 1 3 8 12 11 9 9 10 8 7 6 5 8 4 5 7 8 9 9 8 9 10 10 10 10 11 12 12 12 13 13 14 15 15 16 17 18 20 22 23 23 23 22 22 21 17 14 14 13 13 13 13 13 13 13 13 12 13 13 13 13 14 14 14 15 15
2 1 0 3 3 3 3 3 3 4 3 2 1 3 4 4 2 2 4 2 1 2 5 9 9 8 9 10 8 7 8 8 5 1 5 5 5 6 8 9 11 14 13 12 12 12 12 12 13 14 15 15 16 16 17 18 19 21 23 23 24 24 23 23 21 17 15 15 14 13 13 13 14 13 13 13 13 13 14 13 14 14 14 14 15 16
1 1 0 2 2 3 5 4 4 4 3 3 3 5 7 5 2 3 3 0 2 2 4 7 8 8 10 10 8 7 7 2 2 4 5 6 5 5 8 10 11 13 14 14 14 14 14 14 15 15 16 16 16 17 18 19 21 22 23 24 24 24 24 23 19 16 16 16 15 14 14 14 14 14 13 13 13 14 14 14 14 14 15 15 16 16
2 2 1 1 2 2 3 2 4 5 3 4 5 5 4 3 2 2 1 1 1 3 4 6 7 8 10 10 9 6 2 3 3 3 5 5 5 5 8 10 9 10 12 14 15 16 16 16 17 17 17 17 17 18 18 20 22 23 23 25 25 24 23 22 18 17 18 17 15 15 14 14 14 14 14 14 14 14 15 15 15 15 15 15 16 17
5 4 3 3 3 2 1 1 3 4 1 9 11 5 3 4 1 0 1 1 1 3 4 5 6 8 9 9 8 5 2 3 2 2 3 3 2 4 9 12 12 12 14 15 17 18 19 19 19 20 19 19 19 19 19 21 23 23 25 26 25 23 22 21 19 19 19 17 16 16 15 15 15 14 15 15 14 15 15 15 15 16 16 16 16 17
5 4 3 3 4 4 3 4 4 1 3 10 11 5 5 4 1 1 2 1 1 3 4 4 5 8 9 8 8 6 4 3 3 3 3 4 3 4 8 12 14 15 16 18 19 19 20 21 21 21 21 21 21 20 21 23 24 25 27 26 24 22 23 22 20 20 20 19 17 17 16 15 15 15 15 15 15 15 16 16 16 16 16 16 15 16
4 3 2 2 4 4 4 5 3 2 2 8 6 1 1 1 1 1 2 1 1 3 4 3 5 7 9 8 8 7 6 6 6 5 5 5 5 7 11 14 17 19 19 19 20 19 20 21 21 21 22 22 22 22 23 24 25 27 28 26 23 23 23 22 21 22 21 20 19 17 16 16 16 16 16 15 15 16 16 16 16 17 16 16 15 15
1 1 1 1 1 3 6 6 5 2 3 8 10 5 1 1 0 2 2 2 1 3 3 2 3 5 7 7 6 6 7 7 7 6 7 5 5 9 14 16 17 19 20 20 20 21 21 21 21 22 22 23 23 24 24 25 27 28 27 25 23 24 23 22 22 23 22 21 19 18 17 17 17 17 16 16 16 17 17 17 17 17 17 17 17 17
2 3 3 1 0 2 4 3 5 7 6 6 9 8 6 6 4 3 3 3 1 2 3 3 2 3 5 6 6 6 6 7 7 6 6 6 6 9 14 18 19 21 22 23 23 23 22 22 23 23 24 25 25 24 25 26 28 28 27 25 25 25 23 22 23 23 23 21 20 19 18 18 18 17 17 17 17 17 18 18 18 18 19 19 18 18
2 4 4 4 4 4 5 4 4 5 5 4 6 6 7 8 7 6 5 3 1 1 2 3 3 3 4 5 7 7 5 5 6 6 5 6 6 8 13 19 22 22 22 23 23 22 22 23 24 25 25 26 25 25 25 27 27 27 26 27 27 26 24 24 24 24 24 22 21 21 20 20 19 19 18 19 18 18 19 19 18 19 20 20 18 18
3 4 4 3 4 5 8 9 7 6 7 8 9 9 9 9 8 7 5 4 4 4 3 4 5 6 6 6 6 5 6 6 6 6 5 5 5 8 14 20 21 21 21 21 21 22 23 24 25 25 26 26 25 24 26 26 26 26 25 26 28 28 27 27 26 25 25 24 23 23 22 21 21 20 20 20 20 19 20 19 19 20 20 20 18 18
4 5 4 2 2 5 7 7 5 3 5 5 6 8 10 9 8 8 6 5 7 7 6 6 7 7 8 9 8 6 5 6 6 7 7 7 9 13 16 18 18 19 20 19 19 20 22 24 25 25 26 26 25 25 26 26 25 24 24 25 27 28 29 29 28 27 27 26 26 25 24 23 22 21 20 20 20 20 20 20 19 20 20 20 18 17
7 7 7 6 6 5 5 5 6 3 3 2 1 3 4 5 7 9 9 9 9 8 7 7 7 7 7 11 14 12 8 7 8 8 7 11 15 16 16 17 17 18 19 18 19 20 22 24 25 26 27 27 26 26 26 26 25 24 24 24 25 26 28 29 29 30 30 29 28 27 25 24 23 22 21 21 20 20 21 21 20 20 20 19 18 18
Wind_Direction
239 184 192 202 198 194 188 194 62 49 13 174 179 203 205 196 174 112 78 32 302 126 87 101 118 128 138 127 120 118 113 108 111 115 106 105 100 89 88 79 69 64 52 41 41 40 38 36 39 48 51 50 51 55 57 56 56 56 55 54 55 57 58 58 56 55 55 51 43 42 44 46 49 50 51 52 50 49 48 47 47 45 44 43 41 41
231 210 192 126 34 80 131 117 105 92 92 165 191 195 208 214 147 75 68 43 307 243 120 115 116 124 138 130 126 134 132 114 107 120 117 120 117 104 104 96 84 83 74 61 51 43 39 37 39 45 50 52 51 54 57 56 56 57 58 57 56 57 57 57 57 57 57 55 52 50 48 48 50 51 49 49 48 48 47 46 45 45 44 42 41 41
205 211 127 59 28 74 102 133 165 154 157 179 199 197 202 191 126 98 77 57 4 264 162 150 143 131 139 133 132 145 137 114 98 110 116 128 133 126 119 111 110 113 90 65 54 44 38 35 39 43 46 50 51 53 56 58 58 58 58 58 57 57 57 58 59 59 59 59 60 59 57 55 53 52 50 48 48 47 47 45 44 44 43 41 40 40
199 182 73 49 343 152 134 149 167 156 184 201 196 204 192 157 163 190 137 84 36 12 149 165 177 161 153 153 146 151 135 122 115 104 100 112 124 120 117 112 120 122 88 67 58 48 43 39 41 43 41 46 51 52 55 57 57 57 57 58 58 58 58 58 58 59 59 58 58 56 55 54 50 50 50 48 47 46 45 43 42 41 40 40 39 38
128 54 42 102 211 188 163 166 185 191 204 212 211 223 192 155 186 359 114 126 68 65 129 156 208 224 176 182 177 157 158 151 147 142 132 128 130 126 125 117 104 94 77 73 69 56 51 48 46 45 43 45 48 49 52 54 56 57 59 60 59 59 59 58 58 58 57 56 54 52 50 49 44 43 43 41 41 41 41 40 40 38 38 38 37 36
81 55 122 156 166 196 181 178 197 213 213 214 217 229 225 168 156 104 129 159 195 198 171 177 243 239 165 190 187 155 172 179 170 177 168 158 163 162 151 140 121 100 86 82 80 68 62 59 55 51 48 49 48 47 52 56 59 61 62 63 62 60 60 59 59 58 56 55 54 50 46 42 38 36 36 35 34 34 36 37 38 37 36 36 35 34
67 82 194 177 168 174 190 194 180 212 222 220 202 202 211 171 151 148 161 186 229 225 170 196 245 254 170 201 187 161 179 185 178 191 184 173 177 177 166 154 144 133 116 102 90 76 69 64 62 58 52 52 50 48 54 60 64 65 64 65 64 62 61 60 58 58 57 56 54 52 49 44 41 37 34 34 35 34 34 34 36 35 34 34 33 32
53 88 157 177 173 172 193 191 139 213 228 214 75 144 184 178 172 173 182 209 238 63 129 199 245 267 253 204 170 163 174 189 196 199 190 182 183 176 167 160 150 146 140 125 105 86 77 67 66 65 57 56 54 52 58 64 66 67 66 66 66 64 63 61 59 58 57 56 54 53 50 47 44 40 33 33 35 34 33 32 32 32 31 31 31 30
22 40 101 172 183 184 185 108 82 231 236 90 57 112 159 172 182 184 200 221 238 269 224 195 193 259 256 146 141 169 185 210 211 202 191 183 180 174 165 161 153 144 143 135 118 100 89 77 72 71 66 61 61 60 62 66 68 68 67 66 67 66 64 62 60 58 57 56 55 53 50 48 45 41 35 32 33 33 31 30 29 29 27 27 27 27
33 24 360 302 212 171 78 42 30 261 251 105 110 107 92 90 102 156 218 209 163 243 240 182 176 243 260 154 154 181 208 222 211 196 187 178 176 174 166 162 158 152 150 138 124 113 100 92 84 80 77 68 66 68 69 71 70 69 68 66 67 67 64 63 61 58 57 55 55 53 50 48 45 42 37 33 33 32 30 28 27 27 25 24 24 23
111 37 325 17 6 353 46 41 32 324 335 130 137 122 105 104 96 88 238 178 210 238 243 164 185 238 259 195 169 177 216 214 191 177 176 174 173 172 168 166 163 161 158 147 138 128 115 109 100 91 87 75 69 71 73 74 72 70 69 66 67 67 65 63 61 59 57 55 54 53 51 47 45 42 38 33 31 30 28 26 24 24 22 22 21 21
137 111 111 68 19 312 257 125 101 69 207 170 174 145 126 127 140 165 170 184 229 235 228 7 300 232 242 239 170 169 133 178 181 176 173 172 172 171 168 166 164 162 159 155 152 145 137 128 114 103 94 84 75 69 70 71 71 73 71 68 67 67 66 63 61 59 57 55 54 53 51 48 44 43 39 33 30 29 26 23 22 21 19 19 19 19
132 95 49 90 76 360 265 166 117 137 199 217 195 171 176 180 178 212 203 199 233 236 60 339 120 223 244 259 145 167 145 130 171 177 174 167 167 169 164 162 161 162 165 163 159 155 150 141 129 119 108 94 83 70 68 70 71 71 71 69 68 67 66 64 61 59 56 54 53 51 51 48 44 42 40 34 31 29 26 22 20 19 17 15 15 16
178 140 106 187 135 17 314 190 143 167 191 200 190 186 201 193 192 218 207 215 250 217 94 314 141 232 249 110 130 154 132 106 69 147 167 161 161 163 158 160 163 164 169 166 162 161 155 149 140 130 120 107 93 80 75 75 72 70 71 72 70 68 67 65 62 60 57 54 52 50 49 47 44 41 39 34 30 29 26 23 20 18 16 13 11 12
217 203 145 164 142 4 354 346 353 192 182 188 120 235 225 210 217 230 216 228 249 147 151 191 191 243 245 119 112 113 107 106 93 125 144 146 151 154 154 161 164 167 170 167 165 164 157 153 148 140 132 123 111 97 87 84 79 74 75 76 75 72 70 67 64 62 59 56 52 49 47 45 43 40 37 33 29 27 25 22 19 17 14 12 10 9
247 272 74 47 327 357 24 16 340 307 194 160 46 330 243 248 284 269 260 280 30 353 194 192 230 275 73 111 126 123 131 138 132 139 144 146 150 153 160 166 169 173 172 170 169 164 159 158 156 154 149 140 132 120 102 96 92 85 81 80 78 74 71 69 67 63 60 58 53 49 46 44 41 39 35 31 28 25 22 19 16 14 11 9 7 6
232 343 73 120 139 42 10 343 331 300 227 149 166 202 202 2 44 125 196 73 69 263 230 177 239 244 120 174 168 159 172 167 161 164 161 160 161 164 172 174 176 178 174 175 173 166 165 166 165 164 160 157 152 140 126 117 111 102 92 87 82 78 75 72 69 66 61 57 53 48 44 41 38 35 32 28 25 21 18 16 13 10 8 5 4 3
241 163 75 353 148 100 360 285 296 319 310 166 191 185 114 55 17 220 238 183 200 251 244 189 242 242 215 221 156 171 195 188 181 180 173 172 172 176 182 179 180 179 174 174 170 169 170 170 172 171 167 168 163 154 146 134 123 113 105 98 93 87 81 75 69 65 60 53 50 45 40 37 34 31 27 23 21 17 15 12 9 6 5 2 1 0
284 211 114 4 270 43 27 238 209 137 26 314 253 20 79 220 216 180 222 233 215 241 248 216 247 255 236 216 159 190 202 192 186 184 182 182 181 184 186 182 180 176 172 173 173 175 177 177 178 176 173 174 169 166 161 148 136 125 117 109 100 91 83 75 68 63 58 51 47 42 37 34 30 27 23 19 16 13 11 8 5 3 1 360 359 357
332 244 197 130 295 334 6 221 211 162 144 188 218 91 33 270 260 198 194 261 233 232 246 236 240 239 232 200 167 192 196 186 183 184 186 188 186 188 187 181 179 176 176 180 181 181 181 181 181 179 178 177 176 177 173 163 153 142 132 120 107 96 86 78 69 63 58 52 45 41 35 30 26 23 19 16 13 9 7 4 2 0 358 357 356 355
97 230 218 119 280 267 200 187 270 184 151 193 193 187 174 157 323 258 212 44 254 243 232 253 261 236 153 69 148 188 187 184 181 181 184 186 187 189 186 181 179 179 184 184 182 182 182 182 182 181 179 180 182 185 184 178 170 160 149 134 120 106 92 82 71 63 58 52 44 37 31 25 21 18 14 12 10 6 4 2 360 358 357 356 354 352
158 190 200 143 187 221 121 55 5 355 344 287 218 214 208 175 166 213 221 144 19 269 230 255 274 261 102 67 6 42 174 186 179 176 178 182 187 188 184 183 181 183 186 185 182 182 182 183 182 180 181 185 188 190 192 188 181 176 166 149 135 115 99 85 72 63 53 47 40 32 26 20 16 13 10 9 6 3 1 359 359 357 356 355 353 351
137 127 144 129 185 221 53 61 39 335 320 302 287 304 346 242 213 220 227 189 140 225 71 50 280 280 72 62 12 33 193 182 175 176 176 179 185 183 182 184 185 187 185 182 183 183 184 185 182 181 185 189 192 193 195 195 192 191 184 167 151 129 111 94 74 60 46 40 33 26 19 14 12 9 7 6 1 359 359 357 357 356 355 354 352 351
187 184 164 132 15 140 115 126 130 359 316 258 237 205 187 253 270 266 267 218 165 186 162 180 252 260 109 104 332 354 269 178 177 178 173 174 181 181 184 185 183 185 183 179 183 183 183 183 182 185 190 192 195 197 198 200 201 201 196 184 171 156 145 120 77 52 39 32 24 19 14 9 7 6 5 2 358 357 357 355 355 355 354 353 351 350
217 205 179 175 175 173 183 196 193 179 202 240 222 141 193 127 92 94 166 171 234 208 174 206 243 238 100 96 236 218 201 189 187 183 177 179 184 182 183 184 182 182 180 180 183 182 183 186 190 194 195 195 197 198 201 205 206 207 205 198 192 187 187 178 98 35 26 20 13 11 8 4 4 2 0 358 356 355 354 354 354 353 353 353 350 350
273 215 189 200 206 210 208 204 226 196 169 204 201 177 201 165 156 183 168 198 227 190 168 219 240 248 80 223 225 212 201 194 189 186 187 188 187 183 181 181 181 180 182 183 184 185 189 193 197 199 199 199 199 200 204 207 209 211 210 207 207 208 210 213 225 339 1 4 5 4 1 0 359 357 356 354 352 352 352 353 353 353 353 352 350 351
137 91 275 244 232 247 237 109 353 352 151 166 177 186 194 191 200 219 198 211 198 140 204 222 216 3 244 215 215 214 206 203 195 186 190 194 188 183 181 179 179 182 185 183 185 189 194 198 202 204 203 202 202 204 206 209 211 214 214 214 216 218 218 223 236 280 332 348 355 357 356 355 353 352 351 350 349 350 351 352 353 353 353 351 351 351
174 206 181 90 9 332 34 85 4 334 210 185 170 181 188 189 188 197 217 214 134 154 237 221 161 234 230 195 204 212 202 203 202 194 194 194 186 178 174 174 179 185 185 184 190 193 197 203 206 206 206 204 204 206 209 212 215 216 217 219 221 223 225 229 240 270 310 334 346 349 348 347 348 348 347 346 347 348 349 350 351 352 351 351 351 350
211 237 176 129 184 296 312 31 353 283 238 240 241 212 195 188 189 204 220 214 172 213 246 70 169 236 226 171 204 207 199 203 204 197 187 177 177 174 171 180 188 191 190 191 197 201 203 207 208 206 207 205 203 206 209 213 216 218 219 221 223 225 229 232 244 265 292 320 334 338 340 342 343 343 343 342 343 344 345 348 349 349 350 351 349 347
217 188 129 149 218 250 283 320 270 228 255 251 233 224 209 204 208 217 229 222 216 247 266 33 244 254 248 227 234 213 205 208 195 175 172 179 186 183 184 195 198 196 196 197 201 205 207 210 211 208 205 203 205 207 208 211 216 219 220 222 224 227 230 235 246 261 279 305 322 328 334 337 338 338 338 336 337 340 342 344 346 346 347 348 346 345
255 150 108 130 232 255 340 320 225 218 279 261 244 230 218 218 224 235 245 234 229 260 268 256 265 271 247 222 229 212 195 195 185 189 197 198 195 191 195 203 204 201 201 202 204 207 209 211 212 209 206 207 209 210 210 212 217 219 220 222 224 227 231 236 243 254 269 291 310 321 328 331 331 332 331 330 332 336 337 340 342 343 342 342 342 343
230 125 100 138 232 247 34 344 263 281 283 264 256 236 216 210 213 221 223 208 205 226 238 238 260 271 218 178 197 193 180 192 202 202 203 202 196 195 202 206 206 206 203 203 205 206 207 208 208 208 210 211 210 211 214 217 219 221 221 222 224 227 231 236 242 251 264 286 301 312 321 323 324 325 323 323 327 330 333 336 339 338 336 336 337 340
170 155 143 169 228 243 37 336 296 300 269 255 248 226 210 203 207 217 221 218 214 212 203 214 239 264 108 145 181 187 186 203 212 206 203 201 195 199 208 210 208 207 205 206 207 205 205 205 205 208 210 213 216 220 223 223 223 224 224 223 225 227 230 234 241 249 260 279 294 303 311 314 318 317 315 316 321 325 329 332 334 333 331 332 334 337
169 152 135 180 242 245 350 318 277 243 253 251 58 234 214 205 205 209 219 219 208 206 225 246 256 73 123 170 187 192 199 207 215 212 204 196 192 200 209 212 210 208 209 210 210 209 208 205 204 209 215 223 228 229 229 228 227 227 226 224 225 227 229 233 238 246 257 271 283 294 302 307 310 308 307 310 315 320 325 326 327 328 327 328 331 332
147 127 107 182 257 90 39 305 235 237 252 238 74 356 315 250 207 211 236 244 217 214 232 252 256 225 185 196 201 202 215 214 230 230 212 201 201 202 205 209 209 209 210 212 213 213 209 202 200 209 219 226 229 227 225 225 225 224 223 222 224 225 228 232 236 243 252 263 275 286 293 299 301 300 300 304 310 315 318 320 322 322 321 324 327 327
147 145 132 122 166 151 156 194 211 270 296 158 166 232 103 77 156 200 257 259 229 220 224 238 246 228 186 191 200 103 285 255 265 243 216 209 211 207 208 209 205 206 210 210 210 209 209 211 214 219 224 225 223 222 221 222 221 220 220 220 221 224 228 231 236 242 249 260 270 280 287 292 294 294 296 300 305 309 312 313 315 315 316 320 323 324
148 149 142 171 199 188 217 224 265 312 306 235 193 198 187 177 158 169 272 260 222 213 208 222 239 227 189 175 155 122 137 205 254 238 204 200 207 208 213 211 196 199 206 207 211 213 217 221 221 222 223 221 219 219 218 220 219 217 218 218 219 223 227 231 236 241 248 258 268 276 282 286 287 288 291 295 299 302 305 306 308 310 314 318 319 319
133 192 185 195 204 133 40 270 280 293 279 244 138 170 185 202 183 192 282 280 220 203 199 210 228 217 184 158 143 146 153 194 247 234 188 190 198 196 205 210 199 199 204 206 212 214 212 212 211 212 214 214 216 218 217 219 218 215 215 218 221 224 226 231 237 241 246 256 266 273 280 282 282 283 285 289 292 294 297 300 303 306 310 313 314 315
55 4 121 167 187 149 179 238 228 226 246 284 81 150 169 175 168 204 283 279 245 199 197 206 215 200 172 157 153 153 160 208 242 226 161 182 197 186 189 197 198 205 210 210 211 209 206 206 208 210 211 212 214 216 216 218 218 215 216 220 223 224 227 235 240 241 247 256 263 271 276 279 278 278 280 284 287 289 292 296 298 301 306 309 311 312
71 27 172 197 198 176 187 231 240 235 255 279 156 144 140 142 150 240 275 268 138 183 196 199 203 189 163 151 150 167 191 214 239 154 123 143 164 174 185 191 199 209 214 210 206 205 207 211 211 211 213 215 218 218 219 220 218 218 220 223 224 226 233 240 243 242 246 254 261 269 274 276 276 276 277 280 283 285 289 292 296 299 303 305 306 308
81 37 338 216 205 188 201 237 274 261 238 216 185 152 140 140 180 232 244 130 115 182 192 188 187 172 158 155 164 192 206 196 61 78 113 123 125 158 188 196 203 212 214 210 207 207 212 216 216 217 220 223 224 223 223 221 219 221 224 224 226 232 241 245 243 240 245 253 260 266 270 272 273 273 274 276 279 282 286 289 293 295 297 299 302 304
155 140 155 189 174 182 200 238 291 284 243 152 128 123 143 175 211 220 196 53 169 179 174 181 176 161 161 173 190 200 164 75 80 112 136 141 134 151 177 186 193 203 208 208 210 213 217 219 220 221 224 227 227 227 225 222 222 224 225 225 231 241 247 246 241 239 245 252 257 262 267 269 269 269 271 273 276 280 283 286 289 291 293 296 298 300
167 162 182 183 170 132 109 187 257 289 246 130 122 121 203 214 204 126 136 129 210 186 167 174 177 170 171 184 202 203 126 102 167 165 150 172 165 160 182 190 195 202 205 206 210 215 218 220 223 226 229 229 228 228 225 222 224 226 225 230 240 248 248 244 240 240 245 250 255 260 264 266 267 267 268 271 274 276 278 282 285 288 290 292 294 296
188 184 186 197 189 158 157 195 215 273 178 162 150 155 215 207 112 90 197 161 181 198 184 174 181 182 181 185 193 193 172 179 210 201 186 208 215 199 201 203 205 209 210 209 213 216 218 221 226 230 233 232 231 229 227 226 227 227 229 239 249 249 245 244 240 239 244 249 254 259 262 264 265 265 265 268 270 271 274 278 281 284 286 287 288 289
215 195 174 208 202 189 206 217 202 67 186 209 214 245 237 218 86 145 212 270 176 194 200 197 186 185 190 192 184 183 193 204 204 199 200 205 207 209 211 212 213 216 216 216 217 219 221 225 230 233 234 235 233 231 230 231 230 229 236 247 251 247 246 245 239 239 244 248 252 257 261 262 263 263 264 266 266 268 271 274 276 279 281 281 281 281
259 123 136 228 219 260 266 243 219 219 223 229 240 244 213 265 331 163 213 262 223 182 192 201 191 189 192 189 176 185 205 205 196 202 210 209 211 213 215 219 222 221 222 222 222 222 225 228 230 232 235 237 236 233 233 234 232 234 244 252 251 248 248 244 240 241 245 247 252 257 259 260 262 264 264 264 264 266 268 269 271 275 276 274 274 277
213 163 190 241 240 246 255 226 213 228 223 223 243 248 239 238 226 194 221 250 217 182 197 198 197 186 184 191 200 210 211 197 193 202 205 205 215 215 216 222 226 226 226 228 228 228 228 227 229 232 236 238 238 236 236 236 237 241 248 251 249 249 249 243 241 243 244 246 251 255 257 260 262 264 264 263 263 264 265 267 268 270 271 271 272 275
175 161 183 209 205 222 259 267 241 247 255 245 245 250 246 239 223 207 218 226 192 200 214 197 182 162 167 198 216 224 225 203 199 207 206 207 214 215 218 225 229 230 231 232 231 230 228 229 232 236 239 242 243 242 240 241 244 247 248 247 247 249 247 244 243 243 244 247 251 253 257 260 262 263 263 263 264 264 265 266 267 268 269 271 270 271
128 163 182 196 205 246 279 274 249 251 268 251 230 227 238 242 232 217 211 207 213 222 218 212 208 199 200 204 202 215 234 227 212 216 223 220 215 220 227 232 234 236 237 236 234 233 232 234 237 239 242 246 248 246 245 246 249 250 249 247 247 247 245 245 245 244 244 246 248 252 256 259 260 261 262 262 265 266 265 267 268 269 271 273 271 270
162 187 174 155 210 239 256 246 210 218 265 249 217 219 228 231 231 226 213 207 220 219 210 218 222 215 220 224 209 199 221 232 220 218 228 238 236 234 237 239 240 242 243 240 238 237 236 238 241 242 245 249 249 247 248 250 251 251 249 248 247 246 245 245 243 243 244 245 247 251 254 257 259 261 260 261 264 266 268 269 269 268 269 273 275 272
198 194 169 186 223 233 226 204 180 190 260 270 201 220 223 205 205 216 220 224 229 221 207 214 221 218 227 234 224 215 222 238 230 217 225 243 245 243 244 245 243 246 247 244 239 239 241 242 242 241 245 248 248 247 250 252 253 252 250 249 247 246 245 243 240 240 243 244 247 251 253 256 259 260 260 261 263 265 268 271 272 270 270 272 274 273